SCP
0 0 0 0 0 0 0 0 0 0 0 0 -0 0 0 0 0 0 0 0 0 -0 0 0 0 0 0 0 0 0 0 0 0 0 0 0 0 0 0 0 0 0 0
0 0 0 0 0 0 0 0 0 0 0 0 0 0 0 0 0 0 0 0 0 0 0 0 0 0 0 0 0 0 0 0 0 0 0 0 0 0 0 0 0 0 0
0 0 0 0 0 0 0 0 0 0 0 0 0 0 0 0 0 0 0 0 0 0 0 -0 0 0 0 0 0 0 0 0 0 0 0 0 0 0 0 0 0 0 0
0 0 0 0 0 0 0 0 0 0 0 0 0 0 0 0 0 0 0 0 0 0 0 0 0 0 0 0 0 0 0 0 0 0 0 0 0 0 0 0 0 0 0
0 0 0 0 1 1 0 0 0 0 0 0 0 0 0 0 0 0 0 0 0 0 0 0 0 0 0 0 0 0 0 0 0 0 0 0 0 0 0 0 0 0 0
0 0 0 0 1 1 1 1 1 0 1 0 0 0 0 0 0 0 0 0 0 0 0 0 0 0 0 0 0 0 0 0 0 0 0 0 0 0 0 0 0 0 0
0 0 0 1 1 1 1 1 2 1 2 0 0 0 0 0 0 0 0 0 0 0 0 0 0 0 0 0 0 0 0 0 0 0 0 0 0 0 0 0 0 0 0
0 0 1 1 1 1 1 2 2 2 2 1 1 0 0 0 0 0 0 0 0 0 0 0 0 0 0 0 0 0 0 0 0 0 0 0 0 0 0 0 0 0 0
0 0 1 1 2 3 1 3 3 2 3 0 0 0 0 0 0 0 0 0 0 0 0 0 0 0 0 0 0 0 0 0 0 0 0 0 0 0 0 0 0 0 0
0 0 1 1 3 2 3 5 3 2 3 1 0 0 0 0 0 0 0 1 1 0 0 0 0 0 0 0 0 0 0 0 0 0 0 0 0 0 0 0 0 0 0
1 1 1 1 2 3 3 2 3 1 2 2 0 0 0 0 0 0 0 0 0 0 1 0 0 0 0 0 0 0 0 0 0 0 0 0 0 0 0 0 0 0 0
0 0 1 1 2 2 1 2 2 1 1 0 0 0 0 0 0 0 0 0 0 0 0 0 0 0 0 0 0 0 0 0 0 0 0 0 0 -0 -0 -0 0 0 0
1 1 1 1 1 1 1 1 1 0 0 0 0 0 0 0 0 0 0 0 0 0 0 0 0 0 0 0 0 0 0 0 0 0 0 0 0 0 0 0 0 0 0
1 1 0 0 0 1 1 0 0 0 0 0 0 0 0 0 0 0 0 0 0 0 0 0 0 0 0 0 0 0 0 0 0 0 0 0 0 0 0 0 0 0 0
0 0 0 0 0 0 0 0 0 0 0 0 0 0 0 0 0 0 -0 0 0 0 0 0 0 0 0 -0 0 0 0 0 0 0 0 0 0 0 0 0 0 0 0
0 0 0 0 0 0 0 0 0 0 0 0 0 0 0 0 0 0 0 0 0 0 0 0 -0 0 0 0 0 0 0 0 0 0 0 0 0 0 0 0 0 0 0
0 0 0 0 0 0 0 0 0 0 0 0 0 0 0 0 0 0 0 0 0 -0 -0 -0 -0 0 0 0 0 0 0 0 0 0 0 0 0 0 0 0 0 0 0
0 0 0 0 0 0 0 0 0 0 -0 -0 -0 0 0 0 0 0 0 0 0 0 0 0 0 0 0 0 0 0 0 0 0 0 0 0 0 0 0 0 0 0 0
0 0 0 0 0 0 0 0 0 0 0 0 0 0 0 0 0 0 0 0 0 0 0 0 0 0 0 0 0 0 0 0 0 0 0 0 0 0 0 0 0 0 0
0 0 0 0 0 0 0 0 0 0 0 0 0 0 0 0 0 0 0 0 0 0 0 0 0 0 0 0 0 0 0 0 0 0 0 0 0 0 0 0 0 0 0
0 0 0 0 0 0 0 0 0 0 0 0 0 0 0 0 0 0 0 0 0 0 0 0 0 0 0 0 0 0 0 0 0 0 0 0 0 0 0 0 0 0 0
0 0 0 0 0 0 0 0 0 0 0 0 0 0 0 0 0 0 0 0 0 0 0 0 0 0 0 0 0 0 0 0 0 0 0 0 0 0 0 0 0 0 0
0 0 0 0 0 0 0 0 0 0 0 0 0 0 0 0 0 0 0 0 0 0 0 0 0 0 0 0 0 0 0 0 0 0 0 0 0 0 0 0 0 0 0
0 0 0 0 0 0 0 -0 0 0 0 0 0 0 0 0 0 0 0 0 0 0 0 0 0 0 0 0 0 0 0 0 0 0 0 0 0 0 0 0 0 0 0
0 0 0 0 0 0 0 0 -0 0 0 0 0 0 0 0 0 0 0 0 0 0 0 0 0 0 0 0 0 0 0 0 0 0 0 0 0 0 0 0 0 0 0
0 0 0 0 0 0 0 -0 0 0 0 0 0 0 0 0 -0 0 0 0 0 -0 -0 -0 0 0 0 0 0 0 0 0 0 0 0 0 0 0 0 0 0 0 0
Wind_Speed_500mb
15 13 13 10 11 11 13 14 14 17 18 18 16 16 14 14 14 10 8 11 6 12 16 17 18 17 19 20 22 23 23 21 22 24 24 25 25 27 27 27 27 28 29
20 17 16 15 14 16 17 18 18 20 17 18 22 20 17 16 15 16 12 15 8 4 8 16 20 21 23 23 23 23 24 26 26 24 23 22 24 25 26 25 25 26 26
28 27 22 22 21 21 25 23 22 22 24 21 20 24 24 23 22 22 18 15 18 11 9 9 12 19 24 24 26 27 28 28 29 29 28 28 28 29 29 27 26 26 26
35 34 30 27 24 24 23 24 25 24 23 24 23 22 26 28 29 28 25 24 22 18 22 16 13 14 20 26 29 32 32 33 32 32 34 36 35 36 36 36 35 34 33
43 43 36 32 31 29 27 26 27 28 28 26 25 26 26 31 33 34 33 32 31 28 25 29 22 19 23 22 23 26 31 34 35 35 35 33 32 36 37 38 41 41 40
48 50 46 43 39 36 32 31 30 31 31 33 30 27 30 34 36 38 40 36 34 34 32 31 28 29 25 29 29 28 25 26 26 28 27 27 29 29 31 36 39 41 42
54 57 51 43 43 43 42 37 38 33 42 42 41 41 42 41 46 46 41 38 37 39 37 38 36 30 31 31 32 30 29 31 29 27 25 24 24 25 27 29 32 34 36
64 62 59 50 47 44 45 45 44 38 46 50 45 34 41 53 54 48 47 44 44 43 44 41 41 38 34 30 35 37 35 32 32 29 28 27 26 26 25 26 26 28 31
69 66 64 62 57 53 46 50 51 59 61 59 60 44 23 28 39 54 49 42 32 36 43 41 41 41 40 39 35 37 44 43 41 41 40 38 37 33 30 30 30 31 33
57 62 67 67 63 57 49 55 55 67 67 64 67 72 62 58 41 41 63 80 69 47 38 43 54 44 39 36 42 47 48 48 51 54 54 54 52 49 46 44 41 39 37
46 49 49 51 58 66 63 62 62 58 60 66 72 65 61 65 74 77 48 54 67 46 30 29 31 37 41 45 47 51 59 54 49 55 56 57 67 61 58 52 52 50 47
34 36 38 43 51 52 55 51 57 65 77 73 60 57 52 63 54 70 70 57 59 51 40 34 31 37 33 31 33 31 33 26 30 33 39 38 39 45 57 60 60 58 57
24 22 26 29 31 36 41 50 51 61 54 53 69 65 50 55 60 71 63 63 54 53 37 45 32 30 23 14 9 11 24 27 28 32 35 40 46 50 57 63 63 60 61
13 14 19 27 33 34 33 32 27 32 31 34 29 25 8 8 19 34 33 29 22 20 13 9 18 11 7 17 24 22 21 22 25 26 28 32 37 41 45 49 54 57 58
11 19 18 12 10 13 20 18 19 23 16 11 26 30 33 32 29 28 23 17 14 18 29 28 22 18 13 10 13 19 31 36 34 33 32 33 35 37 38 40 43 48 49
14 8 10 9 4 3 9 14 21 27 39 49 43 37 33 30 28 28 28 27 28 23 14 13 12 18 18 29 34 39 39 39 43 42 44 44 45 46 47 45 44 43 44
15 18 21 25 36 42 39 39 39 33 31 31 25 26 24 21 19 18 16 15 12 12 11 1 10 18 22 30 24 26 28 32 26 38 45 42 45 48 52 56 57 54 52
33 36 35 32 29 31 32 34 34 30 30 30 22 21 19 14 12 13 13 12 12 14 11 9 11 16 15 16 23 30 22 23 28 35 44 42 46 50 51 53 57 62 66
35 32 30 32 34 31 30 31 27 27 24 23 19 18 17 16 14 11 8 10 12 12 11 13 16 16 13 20 22 25 27 29 34 33 38 38 45 45 44 48 51 50 59
30 27 28 31 29 26 26 26 23 22 21 21 19 18 17 17 15 14 14 17 17 17 16 15 17 16 19 23 26 28 33 29 36 34 41 40 38 39 40 45 43 45 46
33 32 31 28 23 21 24 23 23 21 22 20 20 22 24 23 20 15 13 17 17 15 15 18 20 21 18 27 31 33 36 36 38 34 33 36 33 32 34 36 38 36 44
28 27 24 22 22 25 23 19 23 25 25 22 20 19 22 22 29 29 27 23 22 20 18 19 21 24 26 30 31 34 39 40 40 30 36 39 36 37 31 31 38 37 44
23 23 24 23 26 30 29 29 30 28 27 26 25 22 17 21 22 20 27 30 30 34 29 23 23 26 31 32 35 36 37 38 41 42 43 46 38 36 31 32 38 36 40
20 22 23 24 27 32 30 36 37 33 31 32 30 28 26 27 31 25 24 22 22 23 29 28 29 30 31 37 36 35 40 43 43 39 39 42 35 32 28 35 40 34 33
15 18 22 24 24 25 26 32 28 26 27 26 28 36 27 28 33 31 24 25 26 29 29 39 36 39 41 37 38 36 31 37 39 39 38 41 39 33 28 31 34 28 26
18 19 22 23 22 23 24 25 25 19 23 20 23 27 35 35 37 38 29 29 33 34 33 33 32 35 37 39 35 33 37 44 45 44 28 33 37 31 31 23 19 13 9
Wind_Direction_500mb
211 217 227 222 234 242 259 260 265 270 274 272 268 268 258 258 250 246 264 300 288 238 225 224 219 214 218 217 214 214 218 220 219 217 217 219 220 227 229 230 230 227 224
227 221 231 234 243 248 247 247 254 264 275 270 260 262 256 252 253 247 252 283 290 274 233 230 234 232 229 223 219 212 203 202 207 213 214 221 222 223 229 229 232 236 238
234 228 234 234 234 241 244 249 254 259 261 261 259 252 255 252 246 246 245 246 275 266 250 238 226 227 225 237 233 227 221 220 221 219 221 223 226 228 229 228 226 223 221
233 233 233 237 241 245 245 245 247 254 260 257 260 258 255 256 255 248 245 240 243 243 270 252 250 234 219 226 233 232 235 236 238 239 239 237 236 235 236 235 235 234 235
236 237 235 239 241 245 245 246 248 250 252 257 253 263 266 261 254 254 251 245 240 238 236 259 253 249 236 231 228 229 230 235 240 242 243 244 242 238 237 239 240 242 243
242 242 241 239 238 243 247 248 243 237 243 239 242 243 253 264 259 256 253 249 245 241 240 232 253 247 244 239 236 233 231 229 227 233 235 236 236 237 236 239 241 243 243
245 246 246 249 249 244 244 240 240 241 236 252 258 264 259 262 262 253 254 250 247 247 240 237 233 235 256 249 238 233 232 228 227 229 231 235 239 240 240 238 238 239 240
252 248 252 248 250 252 254 249 245 239 249 250 256 270 288 276 248 255 249 252 251 243 243 239 234 231 228 242 244 235 234 230 230 231 228 233 236 239 244 246 246 250 249
254 253 251 257 253 251 253 260 254 256 262 260 250 252 267 256 258 238 237 245 254 257 248 229 233 232 233 232 238 249 244 246 245 244 244 240 243 245 244 245 249 251 252
263 259 257 259 260 255 254 250 262 269 260 263 257 253 262 270 250 248 243 248 251 261 248 242 235 230 230 235 233 232 244 246 248 248 249 250 250 249 249 249 251 252 254
259 266 262 256 258 263 260 267 270 270 276 277 272 264 274 270 262 245 258 245 242 242 217 222 222 223 234 240 246 247 248 249 249 247 249 253 254 254 254 255 253 255 254
275 280 271 263 266 269 272 269 274 271 268 273 263 269 271 268 252 257 254 241 239 228 226 232 233 223 223 233 247 258 259 270 272 274 259 253 253 263 255 257 261 259 258
290 274 280 265 266 265 274 282 283 282 261 277 276 262 268 266 268 257 261 249 224 213 207 221 228 230 218 218 243 302 310 306 281 277 272 264 261 260 259 258 259 257 257
287 304 316 296 292 290 289 282 288 328 278 273 275 223 288 275 300 287 251 218 129 80 101 127 175 198 280 301 300 313 277 266 277 272 266 262 264 264 263 259 260 260 260
320 325 334 345 332 308 312 308 306 306 271 122 69 80 79 67 57 48 36 48 89 66 46 31 30 16 356 329 312 285 274 278 274 271 269 266 264 264 264 263 259 258 257
341 318 333 325 322 46 73 86 82 79 88 85 78 72 62 58 54 47 46 41 39 47 57 14 331 318 300 271 273 273 278 278 277 274 271 269 266 265 263 261 259 257 256
57 68 76 87 92 88 84 81 77 69 64 67 64 57 56 53 51 46 36 38 37 34 38 301 291 266 258 262 261 268 279 283 285 289 280 276 275 273 267 263 259 256 254
96 95 94 90 82 80 73 70 71 69 67 69 56 55 56 44 27 18 7 342 327 317 309 282 278 270 271 266 272 279 282 277 275 277 284 281 276 276 278 275 265 257 253
95 92 88 85 89 85 77 70 68 68 61 56 49 36 34 19 7 350 349 341 330 331 326 318 304 304 287 287 281 296 291 290 292 289 299 303 298 284 278 275 273 267 256
95 88 89 92 86 77 64 60 58 51 50 47 43 44 41 39 30 19 11 15 4 352 346 335 323 317 308 294 300 299 303 296 291 287 292 292 291 297 295 275 274 274 271
85 81 82 78 72 61 53 52 54 54 54 50 52 46 42 36 32 35 35 23 16 357 341 332 321 314 310 311 305 303 298 297 298 295 291 291 293 288 285 287 290 286 276
85 80 71 60 55 50 41 41 60 61 59 58 51 44 29 33 12 13 14 9 8 17 1 344 329 321 315 309 308 306 302 303 300 291 300 291 291 290 277 277 269 258 270
84 79 71 59 58 63 59 57 61 59 55 53 53 51 41 23 34 23 8 11 359 2 355 355 330 321 316 311 310 308 304 302 295 294 292 287 285 283 282 286 272 272 269
71 68 63 65 74 73 61 62 49 58 57 56 55 50 46 37 35 42 21 13 7 356 346 345 334 325 316 311 308 305 303 300 296 296 300 289 294 284 281 286 282 282 274
67 66 78 82 81 77 69 74 60 49 50 53 50 51 47 33 32 31 17 6 360 350 358 344 355 352 346 342 332 324 312 303 299 296 299 295 293 294 286 279 281 265 273
76 83 90 87 84 73 64 66 71 39 50 43 44 30 26 28 22 14 20 5 356 352 359 1 355 346 338 327 323 320 311 308 303 303 296 298 293 300 303 283 276 257 297
Wind_Speed_850mb
15 13 13 10 11 11 13 14 14 17 18 18 16 16 14 14 14 10 8 11 6 12 16 17 18 17 19 20 22 23 23 21 22 24 24 25 25 27 27 27 27 28 29
20 17 16 15 14 16 17 18 18 20 17 18 22 20 17 16 15 16 12 15 8 4 8 16 20 21 23 23 23 23 24 26 26 24 23 22 24 25 26 25 25 26 26
28 27 22 22 21 21 25 23 22 22 24 21 20 24 24 23 22 22 18 15 18 11 9 9 12 19 24 24 26 27 28 28 29 29 28 28 28 29 29 27 26 26 26
35 34 30 27 24 24 23 24 25 24 23 24 23 22 26 28 29 28 25 24 22 18 22 16 13 14 20 26 29 32 32 33 32 32 34 36 35 36 36 36 35 34 33
43 43 36 32 31 29 27 26 27 28 28 26 25 26 26 31 33 34 33 32 31 28 25 29 22 19 23 22 23 26 31 34 35 35 35 33 32 36 37 38 41 41 40
48 50 46 43 39 36 32 31 30 31 31 33 30 27 30 34 36 38 40 36 34 34 32 31 28 29 25 29 29 28 25 26 26 28 27 27 29 29 31 36 39 41 42
54 57 51 43 43 43 42 37 38 33 42 42 41 41 42 41 46 46 41 38 37 39 37 38 36 30 31 31 32 30 29 31 29 27 25 24 24 25 27 29 32 34 36
64 62 59 50 47 44 45 45 44 38 46 50 45 34 41 53 54 48 47 44 44 43 44 41 41 38 34 30 35 37 35 32 32 29 28 27 26 26 25 26 26 28 31
69 66 64 62 57 53 46 50 51 59 61 59 60 44 23 28 39 54 49 42 32 36 43 41 41 41 40 39 35 37 44 43 41 41 40 38 37 33 30 30 30 31 33
57 62 67 67 63 57 49 55 55 67 67 64 67 72 62 58 41 41 63 80 69 47 38 43 54 44 39 36 42 47 48 48 51 54 54 54 52 49 46 44 41 39 37
46 49 49 51 58 66 63 62 62 58 60 66 72 65 61 65 74 77 48 54 67 46 30 29 31 37 41 45 47 51 59 54 49 55 56 57 67 61 58 52 52 50 47
34 36 38 43 51 52 55 51 57 65 77 73 60 57 52 63 54 70 70 57 59 51 40 34 31 37 33 31 33 31 33 26 30 33 39 38 39 45 57 60 60 58 57
24 22 26 29 31 36 41 50 51 61 54 53 69 65 50 55 60 71 63 63 54 53 37 45 32 30 23 14 9 11 24 27 28 32 35 40 46 50 57 63 63 60 61
13 14 19 27 33 34 33 32 27 32 31 34 29 25 8 8 19 34 33 29 22 20 13 9 18 11 7 17 24 22 21 22 25 26 28 32 37 41 45 49 54 57 58
11 19 18 12 10 13 20 18 19 23 16 11 26 30 33 32 29 28 23 17 14 18 29 28 22 18 13 10 13 19 31 36 34 33 32 33 35 37 38 40 43 48 49
14 8 10 9 4 3 9 14 21 27 39 49 43 37 33 30 28 28 28 27 28 23 14 13 12 18 18 29 34 39 39 39 43 42 44 44 45 46 47 45 44 43 44
15 18 21 25 36 42 39 39 39 33 31 31 25 26 24 21 19 18 16 15 12 12 11 1 10 18 22 30 24 26 28 32 26 38 45 42 45 48 52 56 57 54 52
33 36 35 32 29 31 32 34 34 30 30 30 22 21 19 14 12 13 13 12 12 14 11 9 11 16 15 16 23 30 22 23 28 35 44 42 46 50 51 53 57 62 66
35 32 30 32 34 31 30 31 27 27 24 23 19 18 17 16 14 11 8 10 12 12 11 13 16 16 13 20 22 25 27 29 34 33 38 38 45 45 44 48 51 50 59
30 27 28 31 29 26 26 26 23 22 21 21 19 18 17 17 15 14 14 17 17 17 16 15 17 16 19 23 26 28 33 29 36 34 41 40 38 39 40 45 43 45 46
33 32 31 28 23 21 24 23 23 21 22 20 20 22 24 23 20 15 13 17 17 15 15 18 20 21 18 27 31 33 36 36 38 34 33 36 33 32 34 36 38 36 44
28 27 24 22 22 25 23 19 23 25 25 22 20 19 22 22 29 29 27 23 22 20 18 19 21 24 26 30 31 34 39 40 40 30 36 39 36 37 31 31 38 37 44
23 23 24 23 26 30 29 29 30 28 27 26 25 22 17 21 22 20 27 30 30 34 29 23 23 26 31 32 35 36 37 38 41 42 43 46 38 36 31 32 38 36 40
20 22 23 24 27 32 30 36 37 33 31 32 30 28 26 27 31 25 24 22 22 23 29 28 29 30 31 37 36 35 40 43 43 39 39 42 35 32 28 35 40 34 33
15 18 22 24 24 25 26 32 28 26 27 26 28 36 27 28 33 31 24 25 26 29 29 39 36 39 41 37 38 36 31 37 39 39 38 41 39 33 28 31 34 28 26
18 19 22 23 22 23 24 25 25 19 23 20 23 27 35 35 37 38 29 29 33 34 33 33 32 35 37 39 35 33 37 44 45 44 28 33 37 31 31 23 19 13 9
Wind_Direction_850mb
211 217 227 222 234 242 259 260 265 270 274 272 268 268 258 258 250 246 264 300 288 238 225 224 219 214 218 217 214 214 218 220 219 217 217 219 220 227 229 230 230 227 224
227 221 231 234 243 248 247 247 254 264 275 270 260 262 256 252 253 247 252 283 290 274 233 230 234 232 229 223 219 212 203 202 207 213 214 221 222 223 229 229 232 236 238
234 228 234 234 234 241 244 249 254 259 261 261 259 252 255 252 246 246 245 246 275 266 250 238 226 227 225 237 233 227 221 220 221 219 221 223 226 228 229 228 226 223 221
233 233 233 237 241 245 245 245 247 254 260 257 260 258 255 256 255 248 245 240 243 243 270 252 250 234 219 226 233 232 235 236 238 239 239 237 236 235 236 235 235 234 235
236 237 235 239 241 245 245 246 248 250 252 257 253 263 266 261 254 254 251 245 240 238 236 259 253 249 236 231 228 229 230 235 240 242 243 244 242 238 237 239 240 242 243
242 242 241 239 238 243 247 248 243 237 243 239 242 243 253 264 259 256 253 249 245 241 240 232 253 247 244 239 236 233 231 229 227 233 235 236 236 237 236 239 241 243 243
245 246 246 249 249 244 244 240 240 241 236 252 258 264 259 262 262 253 254 250 247 247 240 237 233 235 256 249 238 233 232 228 227 229 231 235 239 240 240 238 238 239 240
252 248 252 248 250 252 254 249 245 239 249 250 256 270 288 276 248 255 249 252 251 243 243 239 234 231 228 242 244 235 234 230 230 231 228 233 236 239 244 246 246 250 249
254 253 251 257 253 251 253 260 254 256 262 260 250 252 267 256 258 238 237 245 254 257 248 229 233 232 233 232 238 249 244 246 245 244 244 240 243 245 244 245 249 251 252
263 259 257 259 260 255 254 250 262 269 260 263 257 253 262 270 250 248 243 248 251 261 248 242 235 230 230 235 233 232 244 246 248 248 249 250 250 249 249 249 251 252 254
259 266 262 256 258 263 260 267 270 270 276 277 272 264 274 270 262 245 258 245 242 242 217 222 222 223 234 240 246 247 248 249 249 247 249 253 254 254 254 255 253 255 254
275 280 271 263 266 269 272 269 274 271 268 273 263 269 271 268 252 257 254 241 239 228 226 232 233 223 223 233 247 258 259 270 272 274 259 253 253 263 255 257 261 259 258
290 274 280 265 266 265 274 282 283 282 261 277 276 262 268 266 268 257 261 249 224 213 207 221 228 230 218 218 243 302 310 306 281 277 272 264 261 260 259 258 259 257 257
287 304 316 296 292 290 289 282 288 328 278 273 275 223 288 275 300 287 251 218 129 80 101 127 175 198 280 301 300 313 277 266 277 272 266 262 264 264 263 259 260 260 260
320 325 334 345 332 308 312 308 306 306 271 122 69 80 79 67 57 48 36 48 89 66 46 31 30 16 356 329 312 285 274 278 274 271 269 266 264 264 264 263 259 258 257
341 318 333 325 322 46 73 86 82 79 88 85 78 72 62 58 54 47 46 41 39 47 57 14 331 318 300 271 273 273 278 278 277 274 271 269 266 265 263 261 259 257 256
57 68 76 87 92 88 84 81 77 69 64 67 64 57 56 53 51 46 36 38 37 34 38 301 291 266 258 262 261 268 279 283 285 289 280 276 275 273 267 263 259 256 254
96 95 94 90 82 80 73 70 71 69 67 69 56 55 56 44 27 18 7 342 327 317 309 282 278 270 271 266 272 279 282 277 275 277 284 281 276 276 278 275 265 257 253
95 92 88 85 89 85 77 70 68 68 61 56 49 36 34 19 7 350 349 341 330 331 326 318 304 304 287 287 281 296 291 290 292 289 299 303 298 284 278 275 273 267 256
95 88 89 92 86 77 64 60 58 51 50 47 43 44 41 39 30 19 11 15 4 352 346 335 323 317 308 294 300 299 303 296 291 287 292 292 291 297 295 275 274 274 271
85 81 82 78 72 61 53 52 54 54 54 50 52 46 42 36 32 35 35 23 16 357 341 332 321 314 310 311 305 303 298 297 298 295 291 291 293 288 285 287 290 286 276
85 80 71 60 55 50 41 41 60 61 59 58 51 44 29 33 12 13 14 9 8 17 1 344 329 321 315 309 308 306 302 303 300 291 300 291 291 290 277 277 269 258 270
84 79 71 59 58 63 59 57 61 59 55 53 53 51 41 23 34 23 8 11 359 2 355 355 330 321 316 311 310 308 304 302 295 294 292 287 285 283 282 286 272 272 269
71 68 63 65 74 73 61 62 49 58 57 56 55 50 46 37 35 42 21 13 7 356 346 345 334 325 316 311 308 305 303 300 296 296 300 289 294 284 281 286 282 282 274
67 66 78 82 81 77 69 74 60 49 50 53 50 51 47 33 32 31 17 6 360 350 358 344 355 352 346 342 332 324 312 303 299 296 299 295 293 294 286 279 281 265 273
76 83 90 87 84 73 64 66 71 39 50 43 44 30 26 28 22 14 20 5 356 352 359 1 355 346 338 327 323 320 311 308 303 303 296 298 293 300 303 283 276 257 297